Location: Bezawada
(16.5136°N, 80.6297°E)
Time: 18:23:23
(UTC+00:00)

FALCON 9 R/B - Pass Details

Date: 27 February 2020
Orbit: 219 x 17388 km, 27.1° (Epoch: 27 March)

Event Time Altitude Azimuth Distance (km) Brightness Sun altitude
Rises 14:10:08 0° 252° (WSW) 3,258 6.3 -21.4°
Reaches altitude 10° 14:11:34 10° 254° (WSW) 2,731 5.6 -21.8°
Maximum altitude 14:18:00 81° 341° (NNW) 2,130 3.8 -23.3°
Enters shadow 14:37:22 27° 67° (ENE) 8,252 6.4 -28.0°
Exits shadow 15:16:57 - 72° (ENE) 17,017 8.0 -37.4°
Sets 15:58:48 0° 77° (ENE) 21,837 8.7 -47.4°
